Terminal Aerodrome Forecast
Issued by NWS

Home | Current Version | Previous Version | Text Only | Print | Product List | Glossary On
Versions: 1 2 3 4 5 6 7 8 9 10 11 12 13 14 15 16 17 18 19 20 21 22 23 24 25 26 27 28 29 30 31 32 33 34 35 36 37 38 39 40 41 42 43 44 45 46 47 48 49 50
000
FTUS45 KBOU 242228 AAC
TAFAPA
TAF AMD
KAPA 242228Z 2422/2518 VRB05KT P6SM FEW110 BKN220
     FM242240 25012G21KT P6SM FEW110 BKN220
     FM250100 25008KT P6SM SCT110 BKN200
     FM250300 22008KT P6SM BKN100 OVC200
     FM251100 01012KT P6SM VCSH SCT050 BKN070
     FM251500 01012G20KT P6SM SCT020 OVC035
      TEMPO 2515/2518 3SM -SHSN SCT015=

USA.gov is the U.S. government's official web portal to all federal, state and local government web resources and services.